Location: Ferintosh
(52.7647°N, 112.9692°W)
Time: 21:21:57
(UTC+00:00)

A-11 Canister half - Pass Details

Date: 26 May 2024
Orbit: 1524 x 1683 km, 47.3° (Epoch: 19 June)

Event Time Altitude Azimuth Distance (km) Brightness Sun altitude
Rises 07:39:23 0° 272° (W) 4,723 11.6 -16.0°
Reaches altitude 10° 07:42:27 10° 269° (W) 3,757 11.0 -15.9°
Maximum altitude 07:51:44 59° 194° (SSW) 1,802 9.0 -15.8°
Drops below altitude 10° 08:01:20 10° 118° (ESE) 3,876 10.9 -15.7°
Sets 08:04:34 0° 115° (ESE) 4,880 11.5 -15.6°
